Dades meteomassalio
Diari Summary for Juliol 11, 2017 Units:  English    Metric   Both
« Previous Day
Next Day »
Diari Semanal Mensual Anual Personalitzat
  Maxima: Minima: Mijana:
Temperatura: TemperatureC °F 16.7 °F 25.5 °F
Rosada: DewpointC °F 13.6 °F 16 °F
Humitat: Humidity % 30 % 59 %
Velocitat del vent: WindSpeedKMH mph 0.0 mph 3.8 mph
Racha vent: WindSpeedGustKMH mph - -
Vent:- - ESE
Pressio: PressurehPa in 1012.4 in -
Pluja: 0.0 in    
Historical Graphs
 
 
Tabular Data for Juliol 11, 2017
Time Temperature Dew Point Pressure Wind Wind Speed Wind Gust Humidity Rainfall Rate (Hourly) solar Conditions
TemperatureC °F DewpointC °F PressurehPa in Calm     Humidity % HourlyPrecipMM in SolarRadiationWatts/m^2 W/m2 Conditions
00:03 23.6 °F 16.8 °F 1013.8 in Calm     66 % 0.0 in 0.0 W/m2 CLR
00:08 23.4 °F 16.7 °F 1013.8 in WNW 11.1 mph 11.1 mph 66 % 0.0 in 0.0 W/m2 CLR
00:13 23.4 °F 16.7 °F 1013.8 in West 5.6 mph 5.6 mph 66 % 0.0 in 0.0 W/m2 CLR
00:18 23.3 °F 16.6 °F 1014.1 in Calm     66 % 0.0 in 0.0 W/m2 CLR
00:23 23.2 °F 16.5 °F 1013.8 in Calm     66 % 0.0 in 0.0 W/m2 CLR
00:28 23.1 °F 16.3 °F 1014.1 in Calm     66 % 0.0 in 0.0 W/m2 CLR
00:33 22.9 °F 16.5 °F 1014.1 in Calm     67 % 0.0 in 0.0 W/m2 CLR
00:38 22.8 °F 16.4 °F 1014.1 in Calm     67 % 0.0 in 0.0 W/m2 CLR
00:43 22.7 °F 16.4 °F 1014.1 in Calm     68 % 0.0 in 0.0 W/m2 CLR
00:48 22.5 °F 16.3 °F 1014.1 in Calm     68 % 0.0 in 0.0 W/m2 CLR
00:53 22.4 °F 16.2 °F 1014.1 in Calm     68 % 0.0 in 0.0 W/m2 CLR
00:58 22.3 °F 16.1 °F 1014.1 in Calm     68 % 0.0 in 0.0 W/m2 CLR
01:03 22.2 °F 16.1 °F 1014.1 in Calm     68 % 0.0 in 0.0 W/m2 CLR
01:08 22.1 °F 15.9 °F 1014.1 in Calm     68 % 0.0 in 0.0 W/m2 CLR
01:13 22.1 °F 15.7 °F 1014.4 in Calm     67 % 0.0 in 0.0 W/m2 CLR
01:18 22.0 °F 15.6 °F 1014.1 in Calm     67 % 0.0 in 0.0 W/m2 CLR
01:23 21.9 °F 15.5 °F 1014.1 in Calm     67 % 0.0 in 0.0 W/m2 CLR
01:28 21.8 °F 15.4 °F 1014.1 in Calm     67 % 0.0 in 0.0 W/m2 CLR
01:33 21.7 °F 15.3 °F 1014.1 in Calm     67 % 0.0 in 0.0 W/m2 CLR
01:38 21.6 °F 15.2 °F 1014.1 in Calm     67 % 0.0 in 0.0 W/m2 CLR
01:43 21.6 °F 15.2 °F 1014.4 in Calm     67 % 0.0 in 0.0 W/m2 CLR
01:48 21.5 °F 15.3 °F 1014.4 in Calm     68 % 0.0 in 0.0 W/m2 CLR
01:53 21.3 °F 15.4 °F 1014.4 in Calm     69 % 0.0 in 0.0 W/m2 CLR
01:58 21.2 °F 15.3 °F 1014.4 in Calm     69 % 0.0 in 0.0 W/m2 CLR
02:03 21.1 °F 15.4 °F 1014.4 in Calm     70 % 0.0 in 0.0 W/m2 CLR
02:08 21.0 °F 15.6 °F 1014.4 in Calm     71 % 0.0 in 0.0 W/m2 CLR
02:13 20.8 °F 15.6 °F 1014.4 in Calm     72 % 0.0 in 0.0 W/m2 CLR
02:18 20.7 °F 15.7 °F 1014.4 in Calm     73 % 0.0 in 0.0 W/m2 CLR
02:23 20.5 °F 15.5 °F 1014.4 in Calm     73 % 0.0 in 0.0 W/m2 CLR
02:28 20.4 °F 15.6 °F 1014.4 in Calm     74 % 0.0 in 0.0 W/m2 CLR
02:33 20.3 °F 15.6 °F 1014.4 in Calm     74 % 0.0 in 0.0 W/m2 CLR
02:38 20.3 °F 15.6 °F 1014.4 in Calm     74 % 0.0 in 0.0 W/m2 CLR
02:43 20.3 °F 15.6 °F 1014.4 in Calm     74 % 0.0 in 0.0 W/m2 CLR
02:48 20.3 °F 15.5 °F 1014.4 in Calm     74 % 0.0 in 0.0 W/m2 CLR
02:53 20.2 °F 15.4 °F 1014.4 in Calm     74 % 0.0 in 0.0 W/m2 CLR
02:58 20.2 °F 15.4 °F 1014.4 in Calm     74 % 0.0 in 0.0 W/m2 CLR
03:03 20.2 °F 15.4 °F 1014.4 in Calm     74 % 0.0 in 0.0 W/m2 CLR
03:08 20.1 °F 15.3 °F 1014.4 in Calm     74 % 0.0 in 0.0 W/m2 CLR
03:13 20.0 °F 15.2 °F 1014.4 in Calm     74 % 0.0 in 0.0 W/m2 CLR
03:18 19.9 °F 15.3 °F 1014.4 in Calm     75 % 0.0 in 0.0 W/m2 CLR
03:23 19.8 °F 15.2 °F 1014.4 in Calm     75 % 0.0 in 0.0 W/m2 CLR
03:28 19.8 °F 15.2 °F 1014.4 in Calm     75 % 0.0 in 0.0 W/m2 CLR
03:33 19.7 °F 15.1 °F 1014.4 in Calm     75 % 0.0 in 0.0 W/m2 CLR
03:38 19.6 °F 15.3 °F 1014.4 in Calm     76 % 0.0 in 0.0 W/m2 CLR
03:44 19.6 °F 15.4 °F 1014.4 in Calm     77 % 0.0 in 0.0 W/m2 CLR
03:49 19.5 °F 15.3 °F 1014.4 in Calm     77 % 0.0 in 0.0 W/m2 CLR
03:54 19.4 °F 15.5 °F 1014.8 in Calm     78 % 0.0 in 0.0 W/m2 CLR
03:59 19.3 °F 15.4 °F 1014.8 in Calm     78 % 0.0 in 0.0 W/m2 CLR
04:04 19.2 °F 15.2 °F 1014.8 in Calm     78 % 0.0 in 0.0 W/m2 CLR
04:09 19.1 °F 15.3 °F 1014.8 in Calm     79 % 0.0 in 0.0 W/m2 CLR
04:14 18.9 °F 15.4 °F 1014.8 in Calm     80 % 0.0 in 0.0 W/m2 CLR
04:19 18.8 °F 15.3 °F 1014.8 in Calm     80 % 0.0 in 0.0 W/m2 CLR
04:24 18.7 °F 15.2 °F 1014.8 in Calm     80 % 0.0 in 0.0 W/m2 CLR
04:29 18.6 °F 15.1 °F 1014.8 in Calm     80 % 0.0 in 0.0 W/m2 CLR
04:34 18.6 °F 15.2 °F 1014.8 in Calm     81 % 0.0 in 0.0 W/m2 CLR
04:39 18.6 °F 15.4 °F 1014.8 in Calm     82 % 0.0 in 0.0 W/m2 CLR
04:44 18.5 °F 15.4 °F 1014.8 in Calm     82 % 0.0 in 0.0 W/m2 CLR
04:49 18.4 °F 15.3 °F 1014.8 in Calm     82 % 0.0 in 0.0 W/m2 CLR
04:54 18.3 °F 15.2 °F 1014.8 in Calm     82 % 0.0 in 0.0 W/m2 CLR
04:59 18.2 °F 15.1 °F 1014.8 in Calm     82 % 0.0 in 0.0 W/m2 CLR
05:04 18.1 °F 15.2 °F 1014.8 in Calm     83 % 0.0 in 0.0 W/m2 CLR
05:09 18.1 °F 15.1 °F 1014.8 in Calm     83 % 0.0 in 0.0 W/m2 CLR
05:14 18.0 °F 15.1 °F 1014.8 in Calm     83 % 0.0 in 0.0 W/m2 CLR
05:19 17.9 °F 14.9 °F 1014.8 in Calm     83 % 0.0 in 0.0 W/m2 CLR
05:24 17.8 °F 14.9 °F 1014.8 in Calm     83 % 0.0 in 0.0 W/m2 CLR
05:29 17.7 °F 15.0 °F 1014.8 in Calm     84 % 0.0 in 0.0 W/m2 CLR
05:34 17.6 °F 14.9 °F 1014.8 in Calm     84 % 0.0 in 0.0 W/m2 CLR
05:39 17.6 °F 14.8 °F 1014.8 in Calm     84 % 0.0 in 0.0 W/m2 CLR
05:44 17.5 °F 14.8 °F 1014.8 in Calm     84 % 0.0 in 0.0 W/m2 CLR
05:49 17.5 °F 14.8 °F 1014.8 in Calm     84 % 0.0 in 0.0 W/m2 CLR
05:54 17.4 °F 14.7 °F 1014.8 in Calm     84 % 0.0 in 0.0 W/m2 CLR
05:59 17.4 °F 14.9 °F 1014.8 in Calm     85 % 0.0 in 0.0 W/m2 CLR
06:04 17.4 °F 14.7 °F 1014.8 in Calm     84 % 0.0 in 0.0 W/m2 CLR
06:09 17.3 °F 14.8 °F 1014.8 in Calm     85 % 0.0 in 0.0 W/m2 CLR
06:14 17.3 °F 14.7 °F 1014.8 in Calm     85 % 0.0 in 0.0 W/m2 CLR
06:19 17.3 °F 14.7 °F 1014.8 in Calm     85 % 0.0 in 0.0 W/m2 CLR
06:24 17.2 °F 14.7 °F 1014.8 in Calm     85 % 0.0 in 0.0 W/m2 CLR
06:29 17.2 °F 14.6 °F 1014.8 in Calm     85 % 0.0 in 0.0 W/m2 OVC
06:34 17.1 °F 14.7 °F 1014.8 in Calm     86 % 0.0 in 0.0 W/m2 OVC
06:39 16.9 °F 14.6 °F 1014.8 in Calm     86 % 0.0 in 0.0 W/m2 OVC
06:44 16.8 °F 14.7 °F 1014.8 in Calm     87 % 0.0 in 7.0 W/m2 BKN
06:49 16.8 °F 14.6 °F 1014.8 in Calm     87 % 0.0 in 11.0 W/m2 BKN
06:54 16.8 °F 14.6 °F 1015.1 in Calm     87 % 0.0 in 14.0 W/m2 BKN
06:59 16.8 °F 14.6 °F 1015.1 in Calm     87 % 0.0 in 16.0 W/m2 BKN
07:04 16.8 °F 14.6 °F 1015.1 in Calm     87 % 0.0 in 21.0 W/m2 BKN
07:09 16.8 °F 14.6 °F 1015.1 in Calm     87 % 0.0 in 26.0 W/m2 BKN
07:14 16.7 °F 14.6 °F 1015.1 in Calm     87 % 0.0 in 37.0 W/m2 BKN
07:19 16.7 °F 14.6 °F 1015.1 in Calm     87 % 0.0 in 53.0 W/m2 SCT
07:24 16.7 °F 14.6 °F 1015.1 in Calm     87 % 0.0 in 65.0 W/m2 SCT
07:29 16.9 °F 14.7 °F 1015.1 in WSW 1.6 mph 1.6 mph 87 % 0.0 in 74.0 W/m2 FEW
07:34 17.1 °F 14.7 °F 1015.1 in Calm     86 % 0.0 in 88.0 W/m2 FEW
07:39 17.2 °F 14.8 °F 1015.1 in Calm     86 % 0.0 in 98.0 W/m2 FEW
07:44 17.4 °F 14.8 °F 1015.1 in Calm     85 % 0.0 in 105.0 W/m2 CLR
07:49 17.6 °F 14.8 °F 1015.5 in Calm     84 % 0.0 in 102.0 W/m2 CLR
07:54 17.8 °F 15.1 °F 1015.5 in Calm     84 % 0.0 in 127.0 W/m2 CLR
07:59 18.1 °F 15.2 °F 1015.5 in Calm     83 % 0.0 in 158.0 W/m2 CLR
08:04 18.5 °F 15.6 °F 1015.5 in Calm     83 % 0.0 in 151.0 W/m2 CLR
08:09 18.9 °F 15.6 °F 1015.5 in Calm     81 % 0.0 in 183.0 W/m2 CLR
08:14 19.1 °F 15.6 °F 1015.8 in Calm     80 % 0.0 in 181.0 W/m2 CLR
08:19 19.3 °F 15.6 °F 1015.8 in Calm     79 % 0.0 in 100.0 W/m2 CLR
08:24 19.3 °F 15.8 °F 1015.8 in Calm     80 % 0.0 in 90.0 W/m2 CLR
08:29 19.2 °F 15.8 °F 1015.8 in Calm     81 % 0.0 in 83.0 W/m2 CLR
08:34 19.0 °F 15.4 °F 1015.8 in Calm     80 % 0.0 in 74.0 W/m2 FEW
08:39 19.0 °F 15.7 °F 1015.8 in Calm     81 % 0.0 in 70.0 W/m2 FEW
08:44 19.0 °F 15.7 °F 1015.8 in Calm     81 % 0.0 in 209.0 W/m2 FEW
08:49 19.2 °F 15.7 °F 1015.8 in Calm     80 % 0.0 in 162.0 W/m2 CLR
08:54 19.6 °F 15.9 °F 1015.8 in Calm     79 % 0.0 in 304.0 W/m2 CLR
08:59 20.1 °F 15.9 °F 1015.8 in Calm     77 % 0.0 in 334.0 W/m2 CLR
09:04 20.6 °F 15.8 °F 1015.8 in Calm     74 % 0.0 in 350.0 W/m2 CLR
09:09 20.7 °F 15.2 °F 1015.8 in Calm     71 % 0.0 in 355.0 W/m2 CLR
09:15 20.8 °F 15.1 °F 1015.8 in Calm     70 % 0.0 in 376.0 W/m2 CLR
09:20 21.0 °F 15.1 °F 1015.8 in Calm     69 % 0.0 in 396.0 W/m2 CLR
09:25 21.2 °F 15.0 °F 1015.8 in NNE 1.9 mph   68 % 0.0 in 406.0 W/m2 CLR
09:30 21.6 °F 15.2 °F 1015.8 in Calm     67 % 0.0 in 417.0 W/m2 CLR
09:35 21.8 °F 15.7 °F 1015.8 in Calm     68 % 0.0 in 434.0 W/m2 CLR
09:40 22.2 °F 15.3 °F 1015.8 in Calm     65 % 0.0 in 452.0 W/m2 CLR
09:45 22.4 °F 15.0 °F 1015.8 in NW 9.7 mph 9.7 mph 63 % 0.0 in 466.0 W/m2 CLR
09:50 22.3 °F 14.7 °F 1015.8 in NW 5.6 mph 5.6 mph 62 % 0.0 in 482.0 W/m2 CLR
09:55 22.2 °F 14.8 °F 1015.8 in WNW 5.6 mph   63 % 0.0 in 494.0 W/m2 CLR
10:00 22.3 °F 15.1 °F 1015.8 in West 7.4 mph 7.4 mph 64 % 0.0 in 508.0 W/m2 CLR
10:05 22.3 °F 14.9 °F 1015.8 in WSW 9.3 mph 9.3 mph 63 % 0.0 in 520.0 W/m2 CLR
10:10 22.4 °F 15.1 °F 1015.8 in Calm     63 % 0.0 in 536.0 W/m2 CLR
10:15 22.8 °F 15.1 °F 1015.8 in Calm     62 % 0.0 in 548.0 W/m2 CLR
10:20 23.2 °F 15.2 °F 1015.8 in Calm     61 % 0.0 in 564.0 W/m2 CLR
10:25 23.2 °F 15.3 °F 1015.5 in Calm     61 % 0.0 in 575.0 W/m2 CLR
10:30 23.5 °F 15.6 °F 1015.5 in Calm     61 % 0.0 in 598.0 W/m2 CLR
10:35 23.7 °F 15.2 °F 1015.5 in South 5.6 mph 5.6 mph 59 % 0.0 in 612.0 W/m2 CLR
10:40 23.8 °F 15.3 °F 1015.8 in Calm     59 % 0.0 in 615.0 W/m2 CLR
10:45 24.0 °F 15.8 °F 1015.5 in Calm     60 % 0.0 in 635.0 W/m2 CLR
10:50 24.3 °F 15.5 °F 1015.5 in North 5.6 mph 5.6 mph 58 % 0.0 in 652.0 W/m2 CLR
10:55 24.4 °F 15.3 °F 1015.5 in SW 1.6 mph   57 % 0.0 in 666.0 W/m2 CLR
11:00 24.4 °F 15.3 °F 1015.5 in SSW 5.6 mph 5.6 mph 57 % 0.0 in 677.0 W/m2 CLR
11:05 24.6 °F 15.2 °F 1015.8 in Calm     56 % 0.0 in 691.0 W/m2 CLR
11:10 24.7 °F 15.6 °F 1015.5 in North 8.0 mph 8.0 mph 57 % 0.0 in 701.0 W/m2 CLR
11:15 24.8 °F 15.4 °F 1015.5 in Calm     56 % 0.0 in 714.0 W/m2 CLR
11:20 24.9 °F 15.6 °F 1015.5 in North 1.9 mph 1.9 mph 56 % 0.0 in 726.0 W/m2 CLR
11:25 25.2 °F 15.8 °F 1015.5 in NNE 5.6 mph 5.6 mph 56 % 0.0 in 738.0 W/m2 CLR
11:30 25.4 °F 15.7 °F 1015.5 in NNE 11.1 mph 11.1 mph 55 % 0.0 in 751.0 W/m2 CLR
11:35 25.5 °F 15.8 °F 1015.5 in ENE 9.3 mph 9.3 mph 55 % 0.0 in 763.0 W/m2 CLR
11:40 25.6 °F 15.6 °F 1015.5 in Calm     54 % 0.0 in 775.0 W/m2 CLR
11:45 25.7 °F 15.7 °F 1015.5 in East 9.7 mph 9.7 mph 54 % 0.0 in 789.0 W/m2 CLR
11:50 25.7 °F 15.7 °F 1015.5 in ENE 11.1 mph 11.1 mph 54 % 0.0 in 798.0 W/m2 CLR
11:55 25.8 °F 15.8 °F 1015.5 in ENE 7.4 mph 7.4 mph 54 % 0.0 in 807.0 W/m2 CLR
12:00 26.0 °F 15.7 °F 1015.5 in ESE 11.1 mph 11.1 mph 53 % 0.0 in 814.0 W/m2 CLR
12:05 26.1 °F 15.7 °F 1015.5 in ESE 5.6 mph 5.6 mph 53 % 0.0 in 826.0 W/m2 CLR
12:10 26.3 °F 15.9 °F 1015.5 in East 5.6 mph   53 % 0.0 in 833.0 W/m2 CLR
12:15 26.6 °F 16.2 °F 1015.5 in Calm     53 % 0.0 in 840.0 W/m2 CLR
12:20 26.9 °F 16.3 °F 1015.5 in ENE 1.9 mph 1.9 mph 52 % 0.0 in 847.0 W/m2 CLR
12:21 27.0 °F 16.3 °F 1015.5 in ENE 3.7 mph 3.7 mph 52 % 0.0 in 849.0 W/m2 CLR
12:26 27.4 °F 15.7 °F 1015.5 in Calm     49 % 0.0 in 858.0 W/m2 CLR
12:31 27.4 °F 16.1 °F 1015.1 in ENE 1.9 mph   50 % 0.0 in 865.0 W/m2 CLR
12:36 27.6 °F 15.9 °F 1015.1 in Calm     49 % 0.0 in 874.0 W/m2 CLR
12:41 27.7 °F 16.1 °F 1015.1 in NNE 1.9 mph 1.9 mph 49 % 0.0 in 882.0 W/m2 CLR
12:46 27.9 °F 16.2 °F 1015.1 in NE 1.9 mph 1.9 mph 49 % 0.0 in 888.0 W/m2 CLR
12:51 28.0 °F 16.3 °F 1015.1 in East 18.5 mph 18.5 mph 49 % 0.0 in 895.0 W/m2 CLR
12:56 27.7 °F 16.3 °F 1015.1 in NE 13.0 mph 13.0 mph 50 % 0.0 in 902.0 W/m2 CLR
13:01 27.8 °F 16.7 °F 1015.1 in ENE 9.3 mph 9.3 mph 51 % 0.0 in 872.0 W/m2 CLR
13:06 27.7 °F 16.7 °F 1015.1 in NE 11.3 mph 11.3 mph 51 % 0.0 in 914.0 W/m2 CLR
13:11 27.8 °F 16.4 °F 1015.1 in NNW 9.3 mph 9.3 mph 50 % 0.0 in 914.0 W/m2 CLR
13:16 28.0 °F 16.9 °F 1015.1 in NE 9.3 mph 9.3 mph 51 % 0.0 in 921.0 W/m2 CLR
13:21 28.2 °F 16.4 °F 1015.1 in ENE 11.3 mph 11.3 mph 49 % 0.0 in 928.0 W/m2 CLR
13:26 27.8 °F 16.4 °F 1014.8 in East 1.6 mph   50 % 0.0 in 935.0 W/m2 CLR
13:31 28.1 °F 16.3 °F 1014.8 in North 5.6 mph 5.6 mph 49 % 0.0 in 953.0 W/m2 CLR
13:36 28.2 °F 16.4 °F 1014.8 in NNE 4.8 mph 4.8 mph 49 % 0.0 in 893.0 W/m2 CLR
13:41 28.6 °F 16.8 °F 1014.8 in NNE 11.1 mph 11.1 mph 49 % 0.0 in 904.0 W/m2 CLR
13:46 28.9 °F 16.8 °F 1014.8 in NE 9.3 mph 9.3 mph 48 % 0.0 in 863.0 W/m2 CLR
13:51 29.1 °F 16.6 °F 1014.8 in Calm     47 % 0.0 in 984.0 W/m2 CLR
13:56 29.2 °F 16.7 °F 1014.8 in ENE 11.3 mph 11.3 mph 47 % 0.0 in 986.0 W/m2 CLR
14:01 29.4 °F 16.9 °F 1014.4 in NNE 1.9 mph 1.9 mph 47 % 0.0 in 993.0 W/m2 CLR
14:06 29.7 °F 16.9 °F 1014.4 in NE 11.3 mph 11.3 mph 46 % 0.0 in 983.0 W/m2 CLR
14:11 29.9 °F 16.7 °F 1014.4 in Calm     45 % 0.0 in 958.0 W/m2 CLR
14:16 29.8 °F 16.9 °F 1014.4 in NE 9.7 mph 9.7 mph 46 % 0.0 in 780.0 W/m2 CLR
14:21 29.9 °F 16.7 °F 1014.4 in ENE 14.8 mph 14.8 mph 45 % 0.0 in 376.0 W/m2 CLR
14:26 29.9 °F 17.0 °F 1014.1 in Calm     46 % 0.0 in 853.0 W/m2 CLR
14:31 29.9 °F 17.1 °F 1014.1 in ENE 9.7 mph 9.7 mph 46 % 0.0 in 998.0 W/m2 CLR
14:36 30.2 °F 17.3 °F 1014.1 in NE 11.1 mph 11.1 mph 46 % 0.0 in 991.0 W/m2 CLR
14:41 30.7 °F 17.0 °F 1014.1 in NE 5.6 mph 5.6 mph 44 % 0.0 in 940.0 W/m2 CLR
14:46 30.8 °F 17.1 °F 1014.1 in WNW 9.3 mph 9.3 mph 44 % 0.0 in 946.0 W/m2 CLR
14:51 30.9 °F 17.2 °F 1014.1 in NE 5.6 mph   44 % 0.0 in 856.0 W/m2 CLR
14:56 31.0 °F 17.3 °F 1013.8 in NE 3.2 mph 3.2 mph 44 % 0.0 in 984.0 W/m2 CLR
15:01 31.2 °F 17.1 °F 1013.8 in NNE 7.4 mph 7.4 mph 43 % 0.0 in 805.0 W/m2 CLR
15:06 31.5 °F 16.7 °F 1013.8 in NE 11.1 mph 11.1 mph 41 % 0.0 in 911.0 W/m2 CLR
15:11 31.8 °F 16.5 °F 1013.8 in NE 11.1 mph 11.1 mph 40 % 0.0 in 926.0 W/m2 CLR
15:16 32.0 °F 15.9 °F 1013.8 in NE 13.0 mph 13.0 mph 38 % 0.0 in 911.0 W/m2 CLR
15:21 32.1 °F 15.6 °F 1013.8 in NNE 11.1 mph 11.1 mph 37 % 0.0 in 882.0 W/m2 CLR
15:26 32.2 °F 14.8 °F 1013.8 in NE 11.1 mph 11.1 mph 35 % 0.0 in 886.0 W/m2 CLR
15:31 32.1 °F 14.7 °F 1013.8 in ENE 7.4 mph 7.4 mph 35 % 0.0 in 877.0 W/m2 CLR
15:36 32.1 °F 15.2 °F 1013.8 in NE 11.3 mph 11.3 mph 36 % 0.0 in 867.0 W/m2 CLR
15:41 31.9 °F 15.0 °F 1013.4 in NE 13.0 mph 13.0 mph 36 % 0.0 in 860.0 W/m2 CLR
15:46 31.9 °F 14.6 °F 1013.4 in ENE 14.5 mph 14.5 mph 35 % 0.0 in 854.0 W/m2 CLR
15:51 32.1 °F 14.3 °F 1013.4 in ENE 6.4 mph 6.6 mph 34 % 0.0 in 844.0 W/m2 CLR
15:53 32.3 °F 14.9 °F 1013.4 in ENE 7.4 mph 7.4 mph 35 % 0.0 in 840.0 W/m2 CLR
15:58 32.6 °F 14.7 °F 1013.4 in ENE 11.1 mph 11.1 mph 34 % 0.0 in 830.0 W/m2 CLR
16:03 32.6 °F 14.7 °F 1013.4 in NNE 9.3 mph 9.3 mph 34 % 0.0 in 823.0 W/m2 CLR
16:08 32.6 °F 14.7 °F 1013.4 in NE 6.4 mph 6.4 mph 34 % 0.0 in 814.0 W/m2 CLR
16:13 32.8 °F 15.3 °F 1013.4 in NE 9.3 mph 9.3 mph 35 % 0.0 in 807.0 W/m2 CLR
16:18 33.1 °F 14.7 °F 1013.1 in ENE 16.7 mph 16.7 mph 33 % 0.0 in 796.0 W/m2 CLR
16:23 33.0 °F 14.6 °F 1013.1 in North 11.1 mph 11.1 mph 33 % 0.0 in 788.0 W/m2 CLR
16:28 32.8 °F 14.4 °F 1013.1 in NE 16.7 mph 16.7 mph 33 % 0.0 in 777.0 W/m2 CLR
16:33 32.8 °F 14.4 °F 1013.1 in NE 11.1 mph 11.1 mph 33 % 0.0 in 766.0 W/m2 CLR
16:38 32.9 °F 14.5 °F 1013.1 in ENE 11.3 mph 11.3 mph 33 % 0.0 in 758.0 W/m2 CLR
16:43 32.9 °F 14.6 °F 1013.1 in NNE 9.3 mph 9.3 mph 33 % 0.0 in 745.0 W/m2 CLR
16:48 33.1 °F 14.7 °F 1013.1 in ENE 16.7 mph 16.7 mph 33 % 0.0 in 733.0 W/m2 CLR
16:53 33.1 °F 14.7 °F 1013.1 in ENE 11.1 mph 11.1 mph 33 % 0.0 in 721.0 W/m2 CLR
16:58 33.2 °F 14.3 °F 1013.1 in North 14.8 mph 14.8 mph 32 % 0.0 in 712.0 W/m2 CLR
17:03 33.2 °F 14.3 °F 1013.1 in North 14.8 mph 14.8 mph 32 % 0.0 in 698.0 W/m2 CLR
17:08 33.2 °F 14.3 °F 1013.1 in North 8.0 mph 8.0 mph 32 % 0.0 in 687.0 W/m2 CLR
17:13 33.3 °F 14.8 °F 1012.8 in NNE 5.6 mph 5.6 mph 33 % 0.0 in 675.0 W/m2 CLR
17:18 33.4 °F 14.0 °F 1012.8 in NW 14.8 mph 14.8 mph 31 % 0.0 in 666.0 W/m2 CLR
17:23 33.7 °F 14.2 °F 1012.8 in North 13.0 mph 13.0 mph 31 % 0.0 in 652.0 W/m2 CLR
17:28 33.5 °F 14.1 °F 1012.8 in North 11.1 mph 11.1 mph 31 % 0.0 in 636.0 W/m2 CLR
17:33 33.6 °F 13.6 °F 1012.8 in North 14.8 mph 14.8 mph 30 % 0.0 in 626.0 W/m2 CLR
17:38 33.6 °F 14.1 °F 1012.8 in North 13.0 mph 13.0 mph 31 % 0.0 in 613.0 W/m2 CLR
17:44 33.5 °F 14.1 °F 1012.8 in NW 14.8 mph 14.8 mph 31 % 0.0 in 599.0 W/m2 CLR
17:49 33.4 °F 13.9 °F 1012.8 in NNW 5.6 mph   31 % 0.0 in 580.0 W/m2 CLR
17:54 33.7 °F 14.2 °F 1012.8 in NNE 13.0 mph 13.0 mph 31 % 0.0 in 570.0 W/m2 CLR
17:59 33.6 °F 14.2 °F 1012.8 in ENE 16.7 mph 16.7 mph 31 % 0.0 in 552.0 W/m2 CLR
18:03 33.5 °F 15.0 °F 1012.8 in ENE 8.0 mph 8.0 mph 33 % 0.0 in 540.0 W/m2 CLR
18:08 33.5 °F 14.6 °F 1012.8 in ENE 5.6 mph 5.6 mph 32 % 0.0 in 529.0 W/m2 CLR
18:13 33.4 °F 14.4 °F 1012.8 in NE 9.7 mph 9.7 mph 32 % 0.0 in 510.0 W/m2 CLR
18:18 33.4 °F 13.9 °F 1012.4 in WNW 5.6 mph 5.6 mph 31 % 0.0 in 496.0 W/m2 CLR
18:24 33.5 °F 14.6 °F 1012.4 in NNE 5.6 mph 5.6 mph 32 % 0.0 in 483.0 W/m2 CLR
18:29 33.6 °F 14.7 °F 1012.4 in NNE 9.3 mph 9.3 mph 32 % 0.0 in 469.0 W/m2 CLR
18:34 33.7 °F 14.2 °F 1012.4 in Calm     31 % 0.0 in 450.0 W/m2 CLR
18:39 33.7 °F 14.2 °F 1012.4 in Calm     31 % 0.0 in 436.0 W/m2 CLR
18:44 33.7 °F 13.7 °F 1012.4 in NNE 11.1 mph 11.1 mph 30 % 0.0 in 422.0 W/m2 CLR
18:49 33.8 °F 14.3 °F 1012.4 in NNE 5.6 mph   31 % 0.0 in 408.0 W/m2 CLR
18:54 33.8 °F 13.8 °F 1012.4 in NNE 5.6 mph 5.6 mph 30 % 0.0 in 390.0 W/m2 CLR
18:59 33.9 °F 14.4 °F 1012.4 in NNE 1.9 mph   31 % 0.0 in 376.0 W/m2 CLR
19:04 34.0 °F 14.5 °F 1012.4 in NNE 3.7 mph 3.7 mph 31 % 0.0 in 359.0 W/m2 CLR
19:09 33.8 °F 14.3 °F 1012.4 in NE 3.7 mph 3.7 mph 31 % 0.0 in 345.0 W/m2 CLR
19:14 33.6 °F 14.7 °F 1012.4 in ENE 9.7 mph 9.7 mph 32 % 0.0 in 330.0 W/m2 CLR
19:19 33.5 °F 14.1 °F 1012.4 in NE 1.9 mph 1.9 mph 31 % 0.0 in 311.0 W/m2 CLR
19:24 33.5 °F 14.6 °F 1012.4 in ENE 3.7 mph 3.7 mph 32 % 0.0 in 297.0 W/m2 CLR
19:29 33.4 °F 14.4 °F 1012.4 in ENE 9.3 mph 9.3 mph 32 % 0.0 in 283.0 W/m2 CLR
19:34 33.3 °F 14.4 °F 1012.4 in NE 9.3 mph 9.3 mph 32 % 0.0 in 269.0 W/m2 CLR
19:39 33.4 °F 14.4 °F 1012.4 in Calm     32 % 0.0 in 251.0 W/m2 CLR
19:44 33.4 °F 14.0 °F 1012.4 in NNE 7.4 mph 7.4 mph 31 % 0.0 in 239.0 W/m2 CLR
19:49 33.4 °F 14.4 °F 1012.4 in NNE 5.6 mph 5.6 mph 32 % 0.0 in 223.0 W/m2 CLR
19:54 33.4 °F 14.9 °F 1012.4 in NNE 9.3 mph 9.3 mph 33 % 0.0 in 206.0 W/m2 CLR
19:59 33.3 °F 14.9 °F 1012.4 in NE 7.4 mph 7.4 mph 33 % 0.0 in 190.0 W/m2 CLR
20:04 33.3 °F 14.3 °F 1012.4 in NE 9.7 mph 9.7 mph 32 % 0.0 in 172.0 W/m2 CLR
20:09 33.1 °F 15.2 °F 1012.8 in ENE 12.9 mph 12.9 mph 34 % 0.0 in 155.0 W/m2 CLR
20:14 32.7 °F 18.8 °F 1012.8 in East 3.7 mph 3.7 mph 44 % 0.0 in 141.0 W/m2 CLR
20:19 32.2 °F 19.4 °F 1012.8 in East 8.0 mph 8.0 mph 47 % 0.0 in 123.0 W/m2 CLR
20:24 31.7 °F 19.7 °F 1012.8 in East 11.1 mph 11.1 mph 49 % 0.0 in 104.0 W/m2 CLR
20:29 31.3 °F 19.7 °F 1012.8 in ESE 7.4 mph 7.4 mph 50 % 0.0 in 91.0 W/m2 CLR
20:34 31.2 °F 19.9 °F 1012.8 in East 13.0 mph 13.0 mph 51 % 0.0 in 79.0 W/m2 FEW
20:39 31.1 °F 19.7 °F 1012.8 in East 11.1 mph 11.1 mph 51 % 0.0 in 67.0 W/m2 FEW
20:44 30.9 °F 19.6 °F 1012.8 in Calm     51 % 0.0 in 54.0 W/m2 SCT
20:49 30.8 °F 19.5 °F 1012.8 in ESE 5.6 mph 5.6 mph 51 % 0.0 in 42.0 W/m2 BKN
20:54 30.7 °F 20.1 °F 1013.1 in ESE 13.0 mph 13.0 mph 53 % 0.0 in 33.0 W/m2 BKN
20:59 30.5 °F 20.4 °F 1013.1 in ESE 11.1 mph 11.1 mph 55 % 0.0 in 25.0 W/m2 BKN
21:04 30.3 °F 20.2 °F 1013.1 in SE 11.3 mph 11.3 mph 55 % 0.0 in 21.0 W/m2 BKN
21:09 30.1 °F 20.3 °F 1012.8 in SE 5.6 mph 5.6 mph 56 % 0.0 in 18.0 W/m2 BKN
21:14 29.9 °F 20.2 °F 1013.1 in SE 8.0 mph 8.0 mph 56 % 0.0 in 14.0 W/m2 BKN
21:19 29.8 °F 20.1 °F 1013.1 in SE 7.4 mph 7.4 mph 56 % 0.0 in 12.0 W/m2 BKN
21:24 29.7 °F 20.3 °F 1013.1 in Calm     57 % 0.0 in 9.0 W/m2 BKN
21:29 29.6 °F 20.2 °F 1013.1 in Calm     57 % 0.0 in 5.0 W/m2 OVC
21:34 29.5 °F 20.4 °F 1013.1 in Calm     58 % 0.0 in 0.0 W/m2 OVC
21:39 29.4 °F 20.0 °F 1013.1 in Calm     57 % 0.0 in 0.0 W/m2 OVC
21:44 29.3 °F 19.9 °F 1013.1 in Calm     57 % 0.0 in 0.0 W/m2 CLR
21:49 29.2 °F 19.8 °F 1013.1 in SE 5.6 mph 5.6 mph 57 % 0.0 in 0.0 W/m2 CLR
21:54 29.1 °F 19.7 °F 1013.4 in Calm     57 % 0.0 in 0.0 W/m2 CLR
21:59 29.1 °F 19.7 °F 1013.4 in Calm     57 % 0.0 in 0.0 W/m2 CLR
22:04 29.0 °F 19.6 °F 1013.4 in ESE 1.6 mph 1.6 mph 57 % 0.0 in 0.0 W/m2 CLR
22:09 28.9 °F 19.5 °F 1013.4 in Calm     57 % 0.0 in 0.0 W/m2 CLR
22:14 28.8 °F 19.4 °F 1013.4 in Calm     57 % 0.0 in 0.0 W/m2 CLR
22:19 28.7 °F 19.3 °F 1013.8 in Calm     57 % 0.0 in 0.0 W/m2 CLR
22:24 28.7 °F 19.3 °F 1013.8 in Calm     57 % 0.0 in 0.0 W/m2 CLR
22:29 28.6 °F 19.3 °F 1013.8 in Calm     57 % 0.0 in 0.0 W/m2 CLR
22:34 28.6 °F 19.6 °F 1013.8 in Calm     58 % 0.0 in 0.0 W/m2 CLR
22:39 28.4 °F 19.4 °F 1014.1 in Calm     58 % 0.0 in 0.0 W/m2 CLR
22:44 28.3 °F 19.5 °F 1014.1 in Calm     59 % 0.0 in 0.0 W/m2 CLR
22:49 28.1 °F 19.6 °F 1014.1 in Calm     60 % 0.0 in 0.0 W/m2 CLR
22:54 27.8 °F 19.6 °F 1014.1 in Calm     61 % 0.0 in 0.0 W/m2 CLR
22:59 27.5 °F 19.6 °F 1014.1 in Calm     62 % 0.0 in 0.0 W/m2 CLR
23:04 27.2 °F 19.6 °F 1014.4 in Calm     63 % 0.0 in 0.0 W/m2 CLR
23:09 27.1 °F 19.4 °F 1014.4 in Calm     63 % 0.0 in 0.0 W/m2 CLR
23:14 26.9 °F 19.5 °F 1014.4 in Calm     64 % 0.0 in 0.0 W/m2 CLR
23:19 26.8 °F 19.4 °F 1014.4 in Calm     64 % 0.0 in 0.0 W/m2 CLR
23:24 26.7 °F 19.6 °F 1014.4 in Calm     65 % 0.0 in 0.0 W/m2 CLR
23:29 26.6 °F 19.4 °F 1014.4 in Calm     65 % 0.0 in 0.0 W/m2 CLR
23:34 26.4 °F 19.3 °F 1014.8 in Calm     65 % 0.0 in 0.0 W/m2 CLR
23:35 26.4 °F 19.3 °F 1014.8 in Calm     65 % 0.0 in 0.0 W/m2 CLR
23:40 26.3 °F 19.4 °F 1014.8 in Calm     66 % 0.0 in 0.0 W/m2 CLR
23:45 26.3 °F 19.4 °F 1014.8 in Calm     66 % 0.0 in 0.0 W/m2 CLR
23:50 26.1 °F 19.5 °F 1014.8 in Calm     67 % 0.0 in 0.0 W/m2 CLR
23:55 25.9 °F 19.6 °F 1014.8 in Calm     68 % 0.0 in 0.0 W/m2 CLR
Lo Temps de Massalio
Compliments of Weather Underground - 1.25 mb